Погода в Дятлицах

Россия / Санкт-Петербург и Ленинградская область     59°41′50″N   29°39′36″E
темп.,
°C
ветер,
м/с
пор.,
м/с
влажн.,
%
обл.,
%
осадки,
мм/ч
давл.,
гПа
погр.,
м
7 марта, вс
вс700:000зюз61297100 4.6 990846
03:00−2з51179100 7.5 989725
06:00−7з7138790 0.2 988958
09:00−8з4117378 0.6 989852
12:00−7сз6987100 0.1 990871
15:00−5сз5771100 0.3 9911057
18:00−7зсз5107633 0.0 993453
21:00−8сз5128348 0.0 995534
8 марта, пн
пн800:00−8с61188100 0.0 998718
03:00−10с61288100 0.1 1001773
06:00−11с51189100 0.1 1004688
09:00−12с5990100 0.2 1008554
12:00−11с4785100 0.0 1011528
15:00−10ссз468094 0.1 1013595
18:00−11с368581 0.0 1014411
21:00−14с239687 0.0 101689
9 марта, вт
вт900:00−15ссз239714 0.0 101761
03:00−16ссз129848 0.0 101848
06:00−17с119996 0.0 101920
09:00−16вюв229697 0.1 1020123
12:00−14вюв348595 0.0 1020351
15:00−13в347898 0.0 1021388
18:00−14в4783100 0.0 1020313
21:00−17в4892100 0.0 1022236
10 марта, ср
ср1000:00−19в499317 0.0 1022219
03:00−20в47939 0.0 1023191
06:00−20в47920 0.0 1024189
09:00−18в37840 0.0 1025184
12:00−13в367660 0.0 1026261
15:00−10в367079 0.0 1025467
18:00−12в378195 0.0 1025274
21:00−15вюв389067 0.0 1025173
11 марта, чт
чт1100:00−16вюв37920 0.0 1024155
03:00−16вюв37880 0.0 1022147
06:00−17юв48860 0.0 1020193
09:00−16юв410870 0.0 1018286
12:00−11юв598536 0.0 1015437
15:00−8ююв5108566 0.0 1011536
18:00−7ююв6138997 0.0 1007607
21:00−4ююв7159099 0.1 1001805